Location: Unspecified
(0.0000°N, 0.0000°E)
Time: 17:05:56
(UTC+02:00)

Atlas Centaur 2 - Visible Passes

Search period start: 28 August 2014 00:00
Search period end: 07 September 2014 00:00
Orbit: 460 x 1329 km, 30.4° (Epoch: 25 August)

Date Brightness Start Highest point End Pass type
(mag) Time Alt. Az. Time Alt. Az. Time Alt. Az.
28 Aug 4.9 04:34:28 22° E 04:34:28 22° E 04:37:13 10° E visible
28 Aug 3.1 06:17:18 47° W 06:19:37 63° NNW 06:27:12 10° NE visible
29 Aug 4.8 04:34:07 23° ENE 04:34:07 23° ENE 04:36:52 10° ENE visible
29 Aug 3.4 06:16:57 42° WNW 06:18:52 49° NNW 06:26:21 10° NE visible
30 Aug 4.9 04:33:43 23° ENE 04:33:43 23° ENE 04:36:22 10° ENE visible
30 Aug 3.7 06:16:32 35° NW 06:18:08 38° NNW 06:25:23 10° NNE visible
31 Aug 4.9 04:33:16 22° ENE 04:33:16 22° ENE 04:35:42 10° ENE visible
31 Aug 4.0 06:16:05 29° NW 06:17:27 30° NNW 06:24:18 10° NNE visible
01 Sep 5.0 04:32:46 20° NE 04:32:46 20° NE 04:34:55 10° NE visible
01 Sep 4.3 06:15:35 23° NW 06:16:49 24° NNW 06:23:05 10° NNE visible
02 Sep 5.1 04:32:12 18° NE 04:32:12 18° NE 04:34:00 10° NE visible
02 Sep 4.5 06:15:01 18° NW 06:16:15 19° NNW 06:21:43 10° NNE visible
03 Sep 5.2 04:31:35 15° NE 04:31:35 15° NE 04:32:58 10° NE visible
03 Sep 4.8 06:14:24 14° NW 06:15:46 15° NNW 06:20:08 10° N visible
04 Sep 5.3 04:30:56 13° NNE 04:30:56 13° NNE 04:31:49 10° NNE visible
04 Sep 5.0 06:13:44 11° NNW 06:15:22 12° NNW 06:18:05 10° N visible
05 Sep 5.4 04:30:13 11° NNE 04:30:13 11° NNE 04:30:32 10° NNE visible
